Showing default

LEMU-NGE, 60532

Orbit data source: Space-Track

LEMU-NGE, 60532 is a Chilean payload satellite in SSO that was launched on Fri, 16 Aug 2024 UTC via an FALCON 9 launch vehicle from the Air Force Western Test Range (AFWTR). Payload-class satellites include a variety of spacecraft equipped with specific instruments for various scientific and technological missions. These include communications satellites like Starlink; space stations such as the ISS; scientific satellites like the Hubble; Earth observation satellites from companies like Planet Labs, Umbra, and HawkEye 360; GPS; miniature CubeSats for education and research; and military/defense satellites.

Loading next visibility...
Identifier
60532, 2024-149BS
Orbit
SSO
Country
Flag of CLCL / CHLE
Related business
Manufacturer
NanoAvionics
Mission
Operational Commercial Imaging
Bus & Motor
CUBESAT 6U, Unknown motor
Mass
~10 kg wet, ~10 kg dry
Launch date (UTC)
2024-08-16 (2 years ago)
Launch vehicle
FALCON 9
Launch site
Air Force Western Test Range (AFWTR)
Object type
Payload
Rocket body
Debris
Shape & HBR
Box + 2 Pan, 0.1 m
Radar Cross Section
0.080 m², Small (<0.1 m²)

Expand to show TLE details & history
Last TLE update: 20 hours ago

TLE from 20 hours ago
0 LEMU-NGE
1 60532U 24149BS  26067.77071141  .00004086  00000-0  38371-3 0  9998
2 60532  97.6907 144.7667 0001765  60.3652 299.7744 14.94494492 84950
Epoch: 2026-03-08T18:29Z
TLE epoch observation values (Epoch: 2026-03-08T18:29:49.465Z)
Latitude
-0.00005°
Longitude
60.83737°
Altitude
586.379 km
Speed
7.567 km/s
True Right ascension
09h 39m 04s
True Declination
0° 00' 00"
Sunlit
Object was in full shadow at epoch
Visualization orbit readout
Latitude
Unknown
Longitude
Unknown
Altitude
Unknown
Speed
Unknown
Apparent Right ascension
Unknown
Apparent Declination
Unknown
Sunlit
N/A
Visualization observer readout
Local Sidereal Time
18:53:06
Azimuth
Unknown
Elevation
Unknown
Doppler factor
Unknown
Orbital elements
Apogee altitude
582.183 km
Perigee altitude
579.726 km
Semi-major axis
6,959.091 km
Eccentricity
0.00018
Inclination
97.6907°
RAAN
144.7667°
Arg. of periapsis
60.3652°
True anomaly
299.75684°
Mean anomaly
299.7744°
Eccentric anomaly
299.76562°
Mean motion
3.73865 °/min
Orbital period
96.29 mins
BSTAR
0.00038371
Loading maneuver chart data...
Computing Atmospheric mass density...
Loading historical data...
Loading historical data...
Loading historical data...
Loading historical data...
Loading historical data...
Loading historical data...
Loading historical data...

Documentation

Showing up to 5 results
|